Weather History for Muncie, IN

Change the Weather History Date:

Tuesday, November 5, 2013

  Actual Average Record
Temperature  
Mean Temperature 53 °F 47 °F  
Max Temperature 57 °F 57 °F 74 °F (1975)
Min Temperature 48 °F 38 °F 15 °F (1991)
Degree Days  
Heating Degree Days 12 18  
Month to date heating degree days 85 85  
Since 1 July heating degree days 557 549  
Cooling Degree Days 0 0  
Month to date cooling degree days 0 0  
Year to date cooling degree days 973 955  
Growing Degree Days 2 (Base 50)    
Moisture  
Dew Point 41 °F    
Average Humidity 66    
Maximum Humidity 80    
Minimum Humidity 51    
Precipitation  
Precipitation 0.01 in 0.11 in 1.10 in (1988)
Month to date precipitation 0.02 0.53  
Year to date precipitation 32.63 34.32  
Sea Level Pressure  
Sea Level Pressure 30.29 in    
Wind  
Wind Speed 8 mph (South)    
Max Wind Speed 15 mph    
Max Gust Speed 21 mph    
Visibility 10 miles    
Events Rain    
T = Trace of Precipitation, MM = Missing Value Source: NWS Daily Summary

Daily Weather History Graph

Daily Weather History Graph

Search for Another Location

Airport:

Trip Planner

Search our weather history database for the weather conditions in past years. The results will help you decide how hot, cold, wet, or windy it might be!

Date:

Astronomy

Nov. 05, 2013 Rise Set
Actual Time 7:15 AM EST 5:33 PM EST
Civil Twilight 6:47 AM EST 6:02 PM EST
Nautical Twilight 6:15 AM EST 6:34 PM EST
Astronomical Twilight 5:43 AM EST 7:06 PM EST
Moon 9:30 AM EST (11/5) 7:34 PM EST (11/5)
Length of Visible Light 11h 14m
Length of Day
10h 17m
Waxing Crescent, 6% of the Moon is Illuminated
Nov 5
Waxing Crescent
Nov 10
First Quarter
Nov 17
Full
Nov 25
Last Quarter
Dec 2
New

Hourly Weather History & Observations

Time (EST) Temp. Dew Point Humidity Pressure Visibility Wind Dir Wind Speed Gust Speed Precip Events Conditions
12:53 AM 50.0 °F 39.0 °F 66% 30.30 in 10.0 mi South 5.8 mph - N/A   Clear
1:53 AM 50.0 °F 39.0 °F 66% 30.31 in 10.0 mi SSW 5.8 mph - N/A   Clear
2:53 AM 50.0 °F 39.0 °F 66% 30.31 in 10.0 mi South 4.6 mph - N/A   Clear
3:53 AM 50.0 °F 39.0 °F 66% 30.32 in 10.0 mi South 5.8 mph - N/A   Partly Cloudy
4:53 AM 51.1 °F 39.0 °F 63% 30.32 in 10.0 mi South 5.8 mph - N/A   Overcast
5:53 AM 51.1 °F 42.1 °F 71% 30.33 in 10.0 mi South 5.8 mph - 0.00 in Rain Light Rain
6:53 AM 50.0 °F 43.0 °F 77% 30.35 in 10.0 mi South 6.9 mph - 0.01 in Rain Light Rain
7:53 AM 50.0 °F 44.1 °F 80% 30.35 in 10.0 mi South 5.8 mph - 0.00 in   Mostly Cloudy
8:53 AM 50.0 °F 45.0 °F 83% 30.37 in 10.0 mi South 5.8 mph - N/A   Overcast
9:53 AM 53.1 °F 45.0 °F 74% 30.37 in 10.0 mi South 5.8 mph - N/A   Partly Cloudy
10:53 AM 55.0 °F 44.1 °F 67% 30.36 in 10.0 mi South 8.1 mph - N/A   Clear
11:53 AM 55.0 °F 42.1 °F 62% 30.36 in 10.0 mi South 9.2 mph - N/A   Clear
12:53 PM 55.9 °F 42.1 °F 60% 30.33 in 10.0 mi SSW 9.2 mph 18.4 mph N/A   Clear
1:53 PM 55.9 °F 42.1 °F 60% 30.30 in 10.0 mi South 9.2 mph - N/A   Scattered Clouds
2:53 PM 55.9 °F 41.0 °F 57% 30.29 in 10.0 mi South 11.5 mph - N/A   Overcast
3:53 PM 55.9 °F 41.0 °F 57% 30.27 in 10.0 mi South 5.8 mph - N/A   Clear
4:53 PM 55.9 °F 41.0 °F 57% 30.26 in 10.0 mi South 6.9 mph - N/A   Clear
5:53 PM 54.0 °F 42.1 °F 64% 30.25 in 10.0 mi SE 6.9 mph - N/A   Clear
6:53 PM 55.0 °F 42.1 °F 62% 30.24 in 10.0 mi SE 9.2 mph - N/A   Mostly Cloudy
7:53 PM 53.1 °F 42.1 °F 66% 30.24 in 10.0 mi SE 8.1 mph - N/A   Clear
8:53 PM 52.0 °F 41.0 °F 66% 30.22 in 10.0 mi SSE 8.1 mph - N/A   Clear
9:53 PM 53.1 °F 39.9 °F 61% 30.19 in 10.0 mi SSE 9.2 mph - N/A   Clear
10:53 PM 55.0 °F 37.9 °F 53% 30.17 in 10.0 mi South 9.2 mph 19.6 mph N/A   Clear
11:53 PM 54.0 °F 37.9 °F 55% 30.16 in 10.0 mi South 11.5 mph - N/A   Scattered Clouds